Location: Edmonton
(53.5500°N, 113.5000°W)
Time: 14:00:48
(UTC-06:00)

Daily predictions for brighter satellites

Satellite Brightness Start Highest point End
(mag) Time Altitude Azimuth Time Altitude Azimuth Time Altitude Azimuth
CENTAUR R/B 3.2 22:50:06 10° NW 22:57:44 81° NE 23:06:12 10° SE
SL-8 R/B 4.4 22:55:48 10° SW 23:00:07 33° SSE 23:04:27 10° E
Cosmos 1461 4.1 22:56:51 10° S 23:00:55 30° ESE 23:05:03 10° ENE
NOSS 3-4 (A) 4.1 23:00:04 10° S 23:05:33 34° ESE 23:11:16 10° ENE
NOSS 3-4 (C) 4.2 23:00:11 10° S 23:05:38 34° ESE 23:11:21 10° ENE
CZ-2C R/B 3.5 23:01:18 10° SSE 23:07:03 66° ENE 23:12:41 10° N
Cosmos 2278 Rocket 2.6 23:04:17 10° S 23:09:38 44° ESE 23:15:00 10° NE
APEX 4.3 23:08:17 10° NW 23:10:56 28° WSW 23:14:00 10° S
IGS 5A 3.5 23:10:19 10° SSE 23:14:29 87° WSW 23:18:41 10° NNW
Cosmos 220 Rocket 3.9 23:11:23 10° SSW 23:15:34 69° ESE 23:19:46 10° NNE
Meteor 1-21 Rocket 4.3 23:15:00 10° S 23:20:51 80° E 23:26:37 10° NNE
Cosmos 1745 Rocket 4.5 23:14:37 10° NNW 23:20:51 62° W 23:27:01 10° S
Cosmos 405 Rocket 4.4 23:20:31 10° NNE 23:23:26 22° ENE 23:26:22 10° ESE
SL-14 R/B 3.2 23:21:27 10° S 23:25:21 81° E 23:29:20 10° NNE
CARTOSAT-1 3.8 23:21:28 10° S 23:25:47 71° WSW 23:30:07 10° NNW
Cosmos 1844 Rocket 3.3 23:20:26 10° SW 23:26:04 64° NW 23:31:42 10° NNE
SL-27 R/B 2.6 23:26:51 10° NNW 23:30:31 74° ENE 23:33:50 12° SSE
SPOT 5 3.9 23:26:14 10° S 23:31:11 46° W 23:36:20 10° NNW
Cosmos 1844 4.1 23:27:08 10° SW 23:32:50 71° NW 23:38:39 10° NNE
NOSS 2-2 (D) 4.5 23:30:26 10° S 23:33:46 26° ESE 23:37:35 10° ENE
Meteor 2-2 Rocket 4.3 23:30:04 10° N 23:35:44 74° ENE 23:41:08 11° SSE
Cosmos 1151 Rocket 4.4 23:32:10 10° N 23:35:50 27° ENE 23:39:29 10° SE
Cosmos 1076 Rocket 3.7 23:32:41 10° S 23:36:51 57° E 23:41:01 10° NNE
Lacrosse 5 2.0 23:33:28 10° WSW 23:38:33 80° NNW 23:43:38 10° ENE
ATLAS 3B R/B 4.0 23:35:34 10° WNW 23:41:01 28° WSW 23:46:24 10° S
Helios 1B rocket 2.4 23:37:08 10° NNE 23:41:17 90° SSE 23:45:23 10° SSW
Mayak 0.9 23:40:13 10° ENE 23:42:14 13° E 23:44:14 10° ESE
ATLAS 5 CENTAUR R/B 2.4 23:38:38 10° S 23:42:47 35° ESE 23:47:23 10° ENE
Cosmos 1626 2.1 23:40:58 10° S 23:44:40 71° E 23:48:24 10° NNE
H-2A R/B 4.3 23:44:08 10° SW 23:48:03 20° W 23:52:03 10° NW
ALOS 2 4.1 23:44:21 10° ESE 23:48:04 28° ENE 23:51:48 10° N
Cosmos 1408 Rocket 4.5 23:44:44 12° SSE 23:48:20 35° E 23:52:24 10° NNE
Cosmos 1766 Rocket 4.2 23:46:05 12° SSE 23:49:53 43° E 23:54:08 10° NNE
Cosmos 371 Rocket 4.1 23:45:34 10° NNW 23:50:14 45° NE 23:54:54 10° SE
Cosmos 1703 3.8 23:47:40 13° SSE 23:50:51 42° E 23:54:33 10° NNE
Cosmos 2082 Rocket 2.4 23:45:53 10° NW 23:51:34 65° WSW 23:56:41 13° SSE
Cosmos 1833 Rocket 3.0 23:46:28 10° NW 23:51:58 58° WSW 23:57:01 12° S
Iridium 67 4.2 23:51:18 10° NNW 23:52:44 27° W 23:53:43 14° SW
Cosmos 2297 4.3 23:48:49 10° S 23:54:04 40° ESE 23:59:22 10° NE
